STARLINK-36870

Last updated on Tue Mar 24 2026 00:02:05 GMT+0000 (Coordinated Universal Time)

1 67897U 26035U 26082.50003471 .00064643 00000+0 43283-3 0 9996 2 67897 97.2861 15.6437 0001507 105.7912 189.2749 15.75091095 5980
UTC large
Height (km)
Speed (km/s)
/
Latitude / Longitude
Inclination (degrees)
Orbital Period (minutes)
Azimuth
Elevation
Range (km)
Doppler Factor

Next 0 passes for location: London (51.5072 / 0.1276)

Sorry there are no passes over London.